Welcome to the New NWS' Forecast!
Most changes are behind the scenes, but click here for differences you might notice.
Latest weather observations around

El Dorado, South Arkansas Regional at Goodwin Field Airport (KELD)

Using English Units (Switch to International System of Units)
Date/ Time (CDT) Wind (mph) Vis. (mi) Weather Sky Cond. Temp (°F) Rel. Humidity Wind Chill (°F) Heat Index (°F) Pressure Precip. (in)
Air Dwpt 6 hour Altimeter (inHg) Sea level (inHg) 1 hr 3 hr 6 hr
Max Min
Jul 28 06:53 SSW 6 10 Partly Cloudy SCT110 77 74     90%   79 29.93 29.92      
Jul 28 05:53 SSW 5 10 Clear CLR 77 74     90%   79 29.93 29.91      
Jul 28 04:53 S 5 10 Mostly Cloudy BKN110 77 74     90%   79 29.91 29.9      
Jul 28 03:53 SSW 3 10 Mostly Cloudy BKN110 77 74     90%   79 29.91 29.89      
Jul 28 02:53 SSW 3 10 Mostly Cloudy BKN120 77 74     90%   79 29.91 29.89      
Jul 28 01:53 S 3 10 Clear CLR 78 74     87%   80 29.91 29.89      
Jul 28 00:53 SSW 5 10 Clear CLR 79 74     85%   83 29.92 29.9      
Jul 27 23:53 SSW 6 10 Clear CLR 80 74     82%   85 29.92 29.91      
Jul 27 22:53 S 6 10 Clear CLR 81 75     82%   87 29.93 29.91      
Jul 27 21:53 S 6 10 Clear CLR 83 75     77%   90 29.93 29.91      
Jul 27 20:53 S 5 10 Clear CLR 84 76     77%   93 29.92 29.91      
Jul 27 19:53 S 5 10 Clear CLR 87 76     70%   98 29.91 29.9      
Jul 27 18:53 S 7 10 Clear CLR 90 75     62%   101 29.92 29.91      
Jul 27 17:53 SSW 9 10 Clear CLR 93 73     52%   102 29.93 29.92      
Jul 27 16:53 SSW 10 10 Clear CLR 94 72     49%   102 29.94 29.93      
Jul 27 15:53 S 8 10 Clear CLR 94 72     49%   102 29.97 29.95      
Jul 27 14:53 7 10 Clear CLR 95 72     48%   104 29.99 29.98      
Jul 27 13:53   10 Clear CLR 93 71     49%   100 30.02 30      
Jul 27 12:53 7 10 Clear CLR 94 72     49%   102 30.04 30.02      
Jul 27 11:53 WNW 9 10 Clear CLR 93 71     49%   100 30.05 30.03      
Jul 27 10:53 7 10 Clear CLR 89 72     57%   96 30.06 30.05      
Jul 27 09:53 WSW 9 10 Clear CLR 87 74     65%   95 30.06 30.05      
Jul 27 05:53 S 5 10 Clear CLR 75 73     94%   77 30.03 30.01      
Jul 27 04:53 Calm 10 Clear CLR 75 73     94%   77 30.01 30      
Jul 27 03:53 WSW 5 10 Clear CLR 77 74     90%   79 30.02 30      
Jul 27 02:53 SSW 6 10 Clear CLR 78 74     87%   80 30.03 30.01      
Jul 27 01:53 S 5 10 Clear CLR 79 73     82%   82 30.03 30.01      
Jul 27 00:53 S 3 10 Clear CLR 79 74     85%   83 30.04 30.02      
Jul 26 23:53 SSE 3 10 Clear CLR 80 76     87%   85 30.04 30.03      
Jul 26 22:53 Calm 10 Clear CLR 79 77     94%   83 30.05 30.04      
Jul 26 21:53 Calm 10 Clear CLR 81 77     88%   88 30.05 30.03      
Jul 26 20:53 Calm 10 Clear CLR 82 77     85%   90 30.04 30.03      
Jul 26 19:53 SE 3 10 Clear CLR 88 75     66%   98 30.02 30.01      
Jul 26 18:53 S 6 10 Clear CLR 92 72     52%   100 30.01 30      
Jul 26 17:53 S 5 10 Clear CLR 93 71     49%   100 30.03 30.02      
Jul 26 16:53 SW 8 10 Clear CLR 94 70     46%   100 30.05 30.03      
Jul 26 15:53 SSW 9 10 Mostly Clear FEW045 FEW050 94 71     48%   101 30.06 30.05      
Jul 26 14:53 SSW 8 10 Clear CLR 94 72     49%   102 30.07 30.06      
Jul 26 13:53 WSW 9 10 Mostly Clear FEW047 93 72     51%   101 30.09 30.08      
Jul 26 12:53 WSW 5 10 Mostly Clear FEW038 92 73     54%   101 30.11 30.1      
Jul 26 11:53   10 Clear CLR 90 74     59%   99 30.12 30.11      
Jul 26 10:53 WSW 9 10 Clear CLR 88 73     61%   96 30.13 30.12      
Jul 26 09:53 SW 6 10 Clear CLR 85 76     75%   94 30.13 30.11      
Jul 26 08:53 SW 7 10 Clear CLR 81 76     85%   87 30.13 30.11      
Jul 26 07:53 SSW 6 10 Clear CLR 77 75     94%   79 30.12 30.11      
Jul 26 06:53 Calm 9 Clear CLR 73 72     96%   75 30.12 30.11      
Jul 26 05:53 SW 5 10 Clear CLR 72 71     97%   73 30.11 30.1      
Jul 26 04:53 Calm 10 Clear CLR 73 70     90%   74 30.11 30.09      
Jul 26 03:53 SSW 3 10 Clear CLR 73 70     90%   74 30.1 30.09      
Jul 26 02:53 SW 5 10 Clear CLR 74 70     87%   75 30.09 30.08      
Jul 26 01:53 Calm 10 Clear CLR 73 70     90%   74 30.1 30.09      
Jul 26 00:53 Calm 10 Clear CLR 75 70     84%   76 30.1 30.09      
Jul 25 23:53 Calm 10 Clear CLR 75 71     88%   76 30.09 30.08      
Jul 25 22:53 Calm 10 Clear CLR 79 71     77%   82 30.08 30.06      
Jul 25 21:53 SSW 6 10 Clear CLR 80 72     76%   84 30.07 30.05      
Jul 25 20:53 SSW 3 10 Clear CLR 82 75     79%   89 30.07 30.06      
Jul 25 19:53 SSE 3 10 Clear CLR 87 74     65%   95 30.07 30.06      
Jul 25 18:53 SSW 5 10 Clear CLR 91 70     50%   97 30.06 30.05      
Jul 25 17:53 SW 7 10 Clear CLR 93 70     47%   99 30.06 30.05      
Jul 25 16:53 SW 6 10 Clear CLR 94 70     46%   100 30.07 30.06      
Jul 25 15:53 SSW 10 10 Clear CLR 94 70     46%   100 30.07 30.06      
Jul 25 14:53 SSW 9 10 Clear CLR 94 72     49%   102 30.08 30.07      
Jul 25 13:53 7 10 Clear CLR 94 74     53%   104 30.09 30.08      
Jul 25 12:53 WSW 6 10 Clear CLR 91 73     56%   100 30.1 30.09      
Jul 25 12:18 WSW 8 10 Partly Cloudy SCT013 91 75     60%   102 30.11        
Jul 25 11:53 7 10 Cloudy OVC014 91 75     60%   102 30.12 30.1      
Jul 25 09:53 SW 7 10 Mostly Cloudy BKN025 85 75     72%   93 30.12 30.11      
Jul 25 09:50 SW 9 10 Mostly Cloudy BKN025 84 75     74%   92 30.12        
Jul 25 08:53 WSW 6 10 Clear CLR 82 76     82%   89 30.12 30.11      
Jul 25 07:53 SSW 3 10 Clear CLR 78 75     90%   80 30.11 30.09      
Jul 25 06:53 Calm 8 Clear CLR 75 74     96%   77 30.09 30.08      
Jul 25 05:53 WSW 3 8 Clear CLR 75 74     96%   77 30.07 30.06      
Jul 25 04:53 SSW 3 7 Clear CLR 74 74     100%   76 30.06 30.05      
Jul 25 03:53 S 3 8 Clear CLR 75 74     96%   77 30.05 30.03      
Jul 25 02:53 Calm 9 Clear CLR 75 74     96%   77 30.03 30.02      
Jul 25 01:53 SW 5 10 Clear CLR 76 75     97%   78 30.03 30.01      
Jul 25 00:53 SW 6 10 Clear CLR 77 75     94%   79 30.02 30.01      
Jul 24 23:53 SW 5 8 Clear CLR 77 76     96%   79 30.02 30.01      
Jul 24 22:53 SSW 6 8 Clear CLR 78 76     93%   80 30.01 30      
Jul 24 21:53 Calm 9 Clear CLR 78 76     93%   80 29.99 29.98      
Jul 24 20:53 Calm 10 Clear CLR 80 76     87%   85 29.98 29.97      
Jul 24 19:53 S 3 10 Clear CLR 84 75     74%   92 29.97 29.96      
Jul 24 18:53 SSW 6 10 Clear CLR 86 75     70%   95 29.96 29.94      
Jul 24 17:53 WSW 5 10 Mostly Clear FEW030 88 75     66%   98 29.94 29.93      
Jul 24 16:53 5 10 Partly Cloudy SCT041 89 74     61%   98 29.95 29.94      
Jul 24 15:53 3 10 Partly Cloudy SCT030 86 74     67%   94 29.96 29.95      
Jul 24 14:53 WSW 5 10 Clear CLR 85 74     70%   92 29.97 29.96      
Jul 24 14:08 SW 7 10 Partly Cloudy FEW023 SCT029 85 74     70%   92 29.98        
Jul 24 13:53 SW 7 10 Mostly Cloudy BKN023 BKN029 85 74     70%   92 29.99 29.98      
Jul 24 13:27 SW 7 10 Mostly Cloudy BKN023 85 74     70%   92 29.99        
Jul 24 12:53 WSW 6 10 Mostly Clear FEW020 84 74     72%   91 30 29.98      
Jul 24 12:00 WNW 7 10 Mostly Clear FEW019 83 73     72%   89 30        
Jul 24 11:53 3 10 Mostly Cloudy BKN021 81 73     77%   86 30 29.99      
Jul 24 10:53 WSW 5 10 Mostly Cloudy BKN016 80 73     79%   84 29.99 29.98      
Jul 24 10:38 SW 5 10 Mostly Cloudy SCT012 BKN016 80 73     79%   84 29.99        
Jul 24 10:06 WSW 5 10 Cloudy OVC010 78 73     85%   80 29.99        
Jul 24 09:53 SW 8 10 Cloudy OVC008 77 73     88%   79 29.99 29.98      
Jul 24 08:53 W 3 10 Cloudy OVC005 76 73     91%   77 29.98 29.97      
Jul 24 08:46 Calm 10 Cloudy OVC005 75 73     94%   77 29.98        
Jul 24 07:53 Calm 10 Cloudy OVC004 74 73     97%   76 29.97 29.96      
Jul 24 06:53 Calm 10 Cloudy OVC003 73 72     96%   75 29.94 29.93      
Jul 24 05:53 Calm 10 Mostly Cloudy BKN004 72 72     100%   74 29.92 29.91      
Jul 24 05:48 Calm 10 Partly Cloudy SCT004 72 72     100%   73 29.92        
Jul 24 04:53 SSW 5 10 Clear CLR 72 72     100%   74 29.9 29.89      
Jul 24 03:53 SSW 5 10 Clear CLR 72 72     100%   74 29.9 29.89      
Jul 24 02:53 S 5 10 Clear CLR 73 72     96%   75 29.92 29.91      
Jul 24 01:53 SE 5 10 Partly Cloudy SCT060 74 72     94%   75 29.93 29.92      
Jul 24 00:53 Calm 10 Clear CLR 74 72     94%   75 29.92 29.9      
Jul 23 23:53 Calm 10 Clear CLR 75 72     90%   76 29.91 29.89      
Jul 23 22:53 W 6 10 Clear CLR 76 73     91%   77 29.92 29.91      
Jul 23 21:53 S 5 10 Clear CLR 77 74     90%   79 29.91 29.9      
Jul 23 20:53 SSW 5 10 Clear CLR 78 74     87%   80 29.89 29.88      
Jul 23 19:53 S 8 10 Clear CLR 80 74     82%   85 29.88 29.86      
Jul 23 18:53 S 9 10 Mostly Clear FEW095 84 77     80%   94 29.86 29.84     0
Jul 23 17:53 SSE 8 10 Mostly Clear FEW100 84 75     74%   92 29.87 29.86      
Jul 23 16:53 ENE 7 10 Clear CLR 83 76     79%   91 29.87 29.86      
Jul 23 15:53 SW 5 10 Clear CLR 80 73     79%   84 29.88 29.86   0  
Jul 23 15:40 S 5 10 Clear CLR 81 72     74%   85 29.88        
Jul 23 15:28 E 5 10 Mostly Clear FEW024 80 71     74%   84 29.89        
Jul 23 14:53 E 14 10 Thunderstorms FEW100 83 75     77%   90 29.92 29.91 0    
Jul 23 14:08 S 10 10 Thunderstorms FEW060 88 77     70%   100 29.89        
Jul 23 13:53 SSW 15 10 Partly Cloudy FEW055 SCT075 SCT090 88 78     73%   102 29.9 29.89      
Jul 23 13:20 SSW 8 10 Mostly Cloudy FEW028 BKN035 BKN075 89 77     68%   102 29.9        
Jul 23 12:53 WSW 9 10 Mostly Cloudy BKN034 91 76     61%   103 29.91 29.9      
Jul 23 11:53 SW 3 10 Mostly Clear FEW031 90 75     62%   101 29.94 29.92      
Jul 23 10:53 SW 6 10 Mostly Cloudy FEW027 BKN100 87 75     68%   97 29.95 29.94      
Jul 23 09:53 WNW 10 10 Partly Cloudy SCT055 86 75     70%   95 29.95 29.93      
Jul 23 08:53 SW 6 10 Clear CLR 82 76     82%   89 29.95 29.94      
Jul 23 07:53 SSW 7 10 Mostly Clear FEW004 77 75     94%   79 29.94 29.93      
Jul 23 07:25 S 3 9 Mostly Clear FEW003 FEW065 75 74     96%   77 29.94        
Jul 23 05:53 Calm 9 Clear CLR 74 73     97%   76 29.93 29.91      
Jul 23 04:53 SSW 3 10 Clear CLR 74 73     97%   76 29.92 29.9      
Jul 23 03:53 S 5 10 Clear CLR 75 73     94%   77 29.91 29.9      
Jul 23 02:53 S 5 10 Clear CLR 75 73     94%   77 29.91 29.9      
Jul 23 01:53 S 5 10 Clear CLR 75 73     94%   77 29.93 29.91      
Jul 23 00:53 SSE 6 10 Clear CLR 76 73     91%   77 29.95 29.93     0
Jul 22 23:53 SSE 7 10 Clear CLR 77 73     88%   79 29.94 29.93      
Jul 22 22:53 S 9 10 Clear CLR 78 72     82%   79 29.92 29.91      
Jul 22 21:53 SW 7 10 Clear CLR 78 72     82%   79 29.93 29.92   0  
Jul 22 20:53 Calm 10 Cloudy OVC100 80 72     76%   84 29.94 29.93 0    
Jul 22 20:34 SSE 8 10 Cloudy FEW050 OVC100 80 73     79%   84 29.94   0    
Jul 22 20:06 SSE 18 10 Light Rain FEW055 BKN100 OVC110 81 74     79%   86 29.94   0    
Jul 22 19:53 SE 13 10 Mostly Cloudy SCT055 SCT075 BKN090 83 73     72%   89 29.93 29.91      
Jul 22 17:53 Calm 10 Clear CLR 93 72     51%   101 29.89 29.88      
Jul 22 16:53 WSW 3 10 Clear CLR 94 72     49%   102 29.9 29.89      
Jul 22 13:53 5 10 Mostly Clear FEW045 92 74     56%   102 29.95 29.94      
Jul 22 11:53 5 10 Clear CLR 91 74     57%   101 29.99 29.97      
Jul 22 10:53 SSW 7 10 Clear CLR 90 75     62%   101 30 29.98      
Jul 22 07:53 SSW 6 10 Clear CLR 78 75     90%   80 30 29.99      
Jul 22 06:53 Calm 8 Clear CLR 74 73     97%   76 29.98 29.97      
Jul 22 05:53 SSE 3 9 Clear CLR 74 73     97%   76 29.97 29.96      
Jul 22 04:53 Calm 10 Clear CLR 75 73     94%   77 29.96 29.95      
Jul 22 03:53 SSW 3 10 Clear CLR 75 73     94%   77 29.94 29.93      
Jul 22 02:53 SSE 3 10 Clear CLR 76 74     94%   78 29.95 29.94      
Jul 22 01:53 Calm 10 Clear CLR 77 75     94%   79 29.95 29.94      
Jul 22 00:53 Calm 10 Clear CLR 77 74     90%   79 29.96 29.95      
Jul 21 23:53 Calm 10 Clear CLR 78 75     90%   80 29.97 29.96      
Jul 21 22:53 Calm 10 Clear CLR 80 74     82%   85 29.98 29.96      
Jul 21 21:53 Calm 10 Clear CLR 82 74     77%   88 29.98 29.96      
Jul 21 20:53 SSW 8 10 Mostly Clear FEW055 84 75     74%   92 29.97 29.96      
Jul 21 20:34 S 10 10 Partly Cloudy SCT055 87 75     68%   97 29.97        
Jul 21 19:53 SSE 5 10 Clear CLR 90 76     64%   102 29.96 29.94      
Jul 21 18:53 S 5 10 Clear CLR 94 72     49%   102 29.95 29.93      
Jul 21 17:53 3 10 Clear CLR 96 72     46%   105 29.95 29.93      
Jul 21 16:53 Calm 10 Mostly Clear FEW055 96 72     46%   105 29.96 29.94      
Jul 21 15:53 Calm 10 Clear CLR 96 71     45%   104 29.97 29.96      
Jul 21 14:53 7 10 Clear CLR 96 73     48%   106 29.99 29.98      
Jul 21 12:53 S 5 10 Clear CLR 94 73     51%   103 30.03 30.01      
Jul 21 11:53 3 10 Clear CLR 91 74     57%   101 30.04 30.03      
Jul 21 10:53 3 10 Clear CLR 91 74     57%   101 30.05 30.03      
Jul 21 09:53 WSW 5 10 Clear CLR 89 74     61%   98 30.05 30.03      
Jul 21 08:53 WSW 5 10 Clear CLR 86 76     72%   96 30.06 30.05      
Jul 21 07:53 Calm 10 Clear CLR 82 77     85%   90 30.05 30.04      
Jul 21 06:53 Calm 6 Fog/Mist CLR 77 76     96%   79 30.03 30.02      
Jul 21 05:53 Calm 7 Clear CLR 76 75     97%   78 30.02 30.01      
Jul 21 04:53 Calm 7 Clear CLR 77 76     96%   79 30.02 30      
Jul 21 03:53 Calm 7 Clear CLR 78 77     96%   81 30.01 30      
Jul 21 02:53 Calm 7 Clear CLR 78 77     96%   81 30.02 30.01      
Jul 21 01:53 Calm 6 Fog/Mist BKN100 79 78     97%   83 30.02 30      
Jul 21 00:53 Calm 6 Fog/Mist SCT110 80 78     94%   86 30.03 30.02      
Jul 20 23:53 Calm 8 Clear CLR 81 79     94%   89 30.04 30.03      
Jul 20 22:53 Calm 8 Mostly Clear FEW110 82 79     90%   92 30.04 30.03      
Jul 20 21:53 Calm 9 Clear CLR 82 79     90%   92 30.03 30.01      
Jul 20 20:53 Calm 10 Clear CLR 84 80     88%   97 30.01 30      
Jul 20 19:53 Calm 10 Clear CLR 88 81     80%   106 30.01 30      
Jul 20 18:53 E 3 10 Clear CLR 91 78     66%   106 30.01 30      
Jul 20 17:53 E 6 10 Cloudy OVC100 92 76     60%   104 30.02 30.01      
Jul 20 16:53 3 10 Mostly Cloudy BKN100 96 73     48%   106 30.03 30.02      
Jul 20 15:53 WSW 5 10 Mostly Clear FEW110 95 74     51%   106 30.05 30.03      
Jul 20 14:53 SSW 6 10 Partly Cloudy SCT046 95 73     49%   105 30.07 30.06      
Jul 20 13:53 5 10 Clear CLR 94 72     49%   102 30.09 30.08      
Jul 20 12:53 5 10 Mostly Clear FEW040 92 76     60%   104 30.12 30.11      
Jul 20 11:53 W 9 10 Clear CLR 93 75     56%   105 30.13 30.11      
Jul 20 10:53 SSW 5 10 Clear CLR 91 75     60%   102 30.14 30.13      
Jul 20 09:53 SSW 3 10 Clear CLR 89 77     68%   102 30.14 30.12      
Jul 20 08:53 Calm 10 Clear CLR 85 77     77%   95 30.13 30.12      
Jul 20 07:53 Calm 10 Clear CLR 80 77     90%   86 30.13 30.11      
Jul 20 06:53 Calm 8 Clear CLR 76 75     97%   78 30.12 30.11      
Jul 20 04:53 Calm 9 Clear CLR 76 74     94%   78 30.1 30.09      
Jul 20 03:53 Calm 7 Clear CLR 76 75     97%   78 30.1 30.08      
Jul 20 02:53 Calm 10 Clear CLR 77 76     96%   79 30.09 30.08      
Jul 20 01:53 Calm 10 Clear CLR 77 76     96%   79 30.1 30.08      
Jul 20 00:53 Calm 10 Clear CLR 78 76     93%   80 30.1 30.09      
Jul 19 23:53 Calm 10 Clear CLR 79 76     90%   83 30.09 30.08      
Jul 19 22:53 Calm 10 Clear CLR 79 77     94%   83 30.09 30.08      
Jul 19 20:53 Calm 10 Clear CLR 84 76     77%   93 30.06 30.05      
Jul 19 19:53 ESE 5 10 Clear CLR 89 76     65%   100 30.06 30.05      
Jul 19 18:53 SSE 5 10 Mostly Cloudy SCT050 BKN070 93 72     51%   101 30.06 30.04      
Jul 19 17:53 Calm 10 Clear CLR 94 71     48%   101 30.05 30.04      
Jul 19 16:53 NNE 3 10 Mostly Cloudy BKN050 96 72     46%   105 30.07 30.05      
Jul 19 15:53 ESE 6 10 Clear CLR 97 72     45%   106 30.08 30.07      
Jul 19 14:53 Calm 10 Mostly Clear FEW050 95 70     44%   102 30.11 30.09      
Jul 19 13:53 E 6 10 Partly Cloudy SCT047 95 74     51%   106 30.13 30.11      
Jul 19 12:53 3 10 Clear CLR 95 70     44%   102 30.15 30.13      
Jul 19 11:53 3 10 Mostly Clear FEW039 92 72     52%   100 30.15 30.14      
Jul 19 10:53 ENE 3 10 Clear CLR 91 74     57%   101 30.16 30.14      
Jul 19 09:53 ENE 3 10 Clear CLR 89 75     63%   99 30.15 30.14      
Jul 19 05:53 Calm 10 Clear CLR 74 73     97%   76 30.12 30.11      
Jul 19 04:53 Calm 8 Clear CLR 76 75     97%   78 30.1 30.09      
Jul 19 03:53 Calm 10 Clear CLR 76 75     97%   78 30.09 30.08      
Jul 19 01:53 Calm 10 Clear CLR 77 76     96%   79 30.09 30.08      
Jul 19 00:53 Calm 10 Clear CLR 78 76     93%   80 30.09 30.08      
Jul 18 23:53 Calm 10 Clear CLR 78 76     93%   80 30.08 30.07      
Jul 18 22:53 Calm 10 Clear CLR 80 76     87%   85 30.08 30.07      
Jul 18 21:53 Calm 10 Mostly Clear FEW065 80 77     90%   86 30.07 30.06      
Jul 18 20:53 Calm 10 Mostly Cloudy BKN060 81 77     88%   88 30.05 30.03      
Jul 18 19:53 Calm 10 Clear CLR 85 78     80%   97 30.03 30.02      
Jul 18 18:53 E 7 10 Partly Cloudy SCT045 SCT060 89 75     63%   99 30.01 30      
Jul 18 17:53 E 5 10 Clear CLR 90 74     59%   99 30.01 30      
Jul 18 16:53 E 8 10 Mostly Clear FEW044 95 74     51%   106 30.03 30.01      
Jul 18 15:53 ENE 9 10 Mostly Clear FEW070 93 74     54%   103 30.03 30.02      
Jul 18 14:53 3 10 Mostly Clear FEW047 94 71     48%   101 30.04 30.03      
Jul 18 13:53 3 10 Mostly Cloudy SCT044 BKN055 92 74     56%   102 30.06 30.05      
Jul 18 12:53 SSE 6 10 Clear CLR 92 72     52%   100 30.07 30.05      
Jul 18 11:53 3 10 Partly Cloudy SCT038 SCT085 90 75     62%   101 30.07 30.06      
Jul 18 10:53 5 10 Partly Cloudy SCT025 89 76     65%   100 30.07 30.06      
Jul 18 09:53 ESE 3 10 Clear CLR 87 77     72%   99 30.07 30.06      
Jul 18 08:53 ENE 5 9 Clear CLR 82 75     79%   89 30.07 30.06      
Jul 18 05:53 Calm 9 Clear CLR 72 71     97%   73 30.03 30.02      
Jul 18 03:53 Calm 10 Clear CLR 73 72     96%   75 30.01 29.99      
Jul 18 02:53 Calm 10 Clear CLR 74 72     94%   75 30.01 29.99      
Jul 18 00:53 Calm 10 Clear CLR 75 73     94%   77 29.99 29.98      
Jul 17 23:53 Calm 10 Clear CLR 77 74     90%   79 29.99 29.97      
Jul 17 22:53 NE 3 10 Clear CLR 78 74     87%   80 29.98 29.97      
Jul 17 21:53 Calm 10 Clear CLR 77 75     94%   79 29.97 29.96      
Jul 17 20:53 Calm 10 Clear CLR 81 75     82%   87 29.95 29.94      
Jul 17 19:53 NNE 5 10 Clear CLR 85 74     70%   92 29.94 29.93      
Jul 17 18:53 NNE 6 10 Clear CLR 90 72     56%   97 29.94 29.93      
Jul 17 17:53 N 6 10 Clear CLR 92 70     49%   98 29.94 29.93      
Jul 17 16:53 NNE 7 10 Partly Cloudy SCT055 93 70     47%   99 29.95 29.93      
Jul 17 14:53 6 10 Clear CLR 92 69     47%   97 29.97 29.96      
Jul 17 13:53 NE 9 10 Clear CLR 91 71     52%   98 29.98 29.97      
Jul 17 12:53 Calm 10 Partly Cloudy FEW038 FEW048 SCT060 91 73     56%   100 29.99 29.98      
Jul 17 11:53 NE 11 10 Mostly Clear FEW035 89 72     57%   96 30 29.98      
Jul 17 10:53 N 9 10 Clear CLR 88 74     63%   97 30 29.98      
Jul 17 09:53 NE 6 10 Clear CLR 86 73     65%   93 29.99 29.98      
Jul 17 08:53 5 10 Clear CLR 80 73     79%   84 30 29.98      
Jul 17 07:53 NNE 3 10 Clear CLR 77 73     88%   79 29.99 29.98      
Jul 17 06:53 N 3 10 Clear CLR 74 72     94%   75 29.97 29.96      
Jul 17 05:53 Calm 10 Clear CLR 73 72     96%   75 29.95 29.94      
Jul 17 04:53 Calm 7 Mostly Clear FEW032 73 72     96%   75 29.95 29.94      
Jul 17 03:53 Calm 10 Partly Cloudy SCT039 SCT049 75 73     94%   77 29.95 29.94      
Jul 17 02:53 Calm 5 Fog/Mist CLR 74 73     97%   76 29.95 29.93      
Jul 17 01:53 Calm 7 Clear CLR 74 73     97%   76 29.95 29.94      
Jul 17 00:53 Calm 7 Clear CLR 74 74     100%   76 29.95 29.94      
Jul 16 23:53 Calm 10 Clear CLR 76 75     97%   78 29.96 29.94      
Jul 16 22:53 ENE 3 10 Clear CLR 77 75     94%   79 29.95 29.94      
Jul 16 21:53 Calm 10 Clear CLR 78 77     96%   81 29.94 29.92      
Jul 16 20:53 NNE 3 10 Clear CLR 80 77     90%   86 29.93 29.91      
Jul 16 19:53 Calm 10 Clear CLR 84 77     80%   94 29.93 29.92      
Jul 16 18:53 E 5 10 Clear CLR 86 75     70%   95 29.93 29.91     0
Jul 16 17:53 E 6 10 Partly Cloudy FEW037 FEW046 SCT055 84 76     77%   93 29.92 29.91 0    
Jul 16 16:53 N 7 10 Partly Cloudy SCT037 92 74     56%   102 29.92 29.91      
Jul 16 15:53 N 7 10 Mostly Cloudy FEW035 SCT047 BKN055 89 75     63%   99 29.93 29.92   0  
Jul 16 14:53 E 6 10 Mostly Cloudy BKN034 BKN042 88 74     63%   97 29.95 29.94 0    
Jul 16 13:53 E 5 10 Partly Cloudy FEW031 SCT045 89 74     61%   98 29.97 29.95      
Jul 16 12:53 ENE 9 10 Partly Cloudy FEW028 SCT037 89 75     63%   99 29.98 29.97      
Jul 16 11:53 ENE 9 10 Partly Cloudy SCT023 88 76     68%   99 30 29.99      
Jul 16 10:53 ENE 7 10 Clear CLR 85 74     70%   92 30.01 29.99      
Jul 16 09:53 Calm 10 Mostly Clear FEW012 83 75     77%   90 30.01 30      
Jul 16 09:04 6 10 Partly Cloudy SCT004 80 75     85%   85 30.02        
Jul 16 08:53 ENE 3 10 Mostly Cloudy BKN004 79 75     88%   83 30.02 30      
Jul 16 08:05 NE 6 4 Fog/Mist OVC002 75 75     100%   77 30.01        
Jul 16 07:53 NNE 5 2.5 Fog/Mist OVC002 75 74     96%   77 30.01 29.99      
Jul 16 07:39 NE 3 0.75 Fog/Mist OVC002 74 74     100%   76 30.01        
Jul 16 07:26 NE 5 1.25 Fog/Mist OVC001 74 74     100%   76 30        
Jul 16 07:11 Calm 0.5 Fog OVC001 74 74     100%   76 30        
Jul 16 06:42 Calm 1.5 Fog/Mist OVC001 73 73     100%   75 30        
Jul 16 06:35 NE 3 2 Fog/Mist BKN001 73 73     100%   75 30        
Jul 16 06:20 NNE 3 3 Fog/Mist BKN001 73 73     100%   75 30        
Jul 16 06:12 NNE 3 2 Fog/Mist BKN001 73 72     96%   75 29.99        
Jul 16 06:00 Calm 0.75 Fog/Mist OVC001 72 72     100%   74 29.99        
Jul 16 05:53 Calm 1 Fog/Mist OVC001 72 72     100%   74 29.99 29.98      
Jul 16 05:50 Calm 1.5 Fog/Mist OVC001 72 72     100%   73 29.99        
Jul 16 05:39 Calm 3 Fog/Mist OVC001 73 72     96%   75 29.99        
Jul 16 05:34 Calm 1 Fog/Mist VV001 73 72     96%   75 29.99        
Jul 16 05:21 Calm 0.25 Fog VV001 73 73     100%   75 29.99        
Jul 16 05:08 Calm 0.5 Fog OVC001 73 72     96%   75 29.98        
Jul 16 04:57 Calm 1.25 Fog/Mist OVC001 73 72     96%   75 29.98        
Jul 16 04:49 Calm 2 Fog/Mist BKN001 73 73     100%   75 29.98 29.97      
Jul 16 04:48 Calm 2.5 Fog/Mist BKN001 73 73     100%   75 29.98        
Jul 16 04:40 NNW 3 4 Fog/Mist SCT001 73 72     96%   75 29.98        
Jul 16 03:53 Calm 7 Clear CLR 73 72     96%   75 29.99 29.97      
Jul 16 02:53 Calm 6 Fog/Mist FEW002 74 74     100%   76 29.99 29.97      
Jul 16 02:35 SE 3 7 Mostly Clear FEW002 74 74     100%   76 29.99        
Jul 16 01:53 ENE 3 8 Clear CLR 74 73     97%   76 29.98 29.97      
Jul 15 23:53 NW 3 10 Clear CLR 74 73     97%   76 30 29.98      
Jul 15 22:53 WNW 3 10 Clear CLR 75 74     96%   77 30 29.99      
Jul 15 17:44 ESE 13 10 Thunderstorms and Rain BKN039 84 73     70%   90 29.98   0    
Jul 15 16:53 Calm 10 Clear CLR 91 73     56%   100 29.97 29.96      
Jul 15 15:53 6 10 Partly Cloudy SCT035 92 73     54%   101 29.99 29.98      
Jul 15 14:53 N 5 10 Mostly Clear FEW036 91 74     57%   101 30.01 29.99      
Jul 15 13:53 NW 8 10 Partly Cloudy FEW028 SCT035 89 76     65%   100 30.04 30.03      
Jul 15 13:21 N 8 10 Partly Cloudy SCT027 SCT032 89 76     65%   100 30.06        
Jul 15 12:53 NW 5 10 Mostly Cloudy BKN024 BKN031 87 75     68%   97 30.07 30.06      
Jul 15 12:50 NNW 3 10 Mostly Cloudy BKN024 BKN031 88 75     66%   98 30.07        
Jul 15 11:53 N 8 10 Clear CLR 87 75     68%   97 30.08 30.07      
Jul 15 10:53 N 6 10 Mostly Cloudy SCT017 BKN100 83 74     74%   89 30.09 30.08      
Jul 15 10:51 N 5 10 Mostly Cloudy BKN017 BKN100 82 73     74%   88 30.09        
Jul 15 10:39 NNW 6 10 Mostly Cloudy SCT015 BKN100 84 74     72%   91 30.1        
Jul 15 09:53 3 10 Mostly Cloudy BKN011 81 74     79%   86 30.1 30.09      
Jul 15 09:45 E 6 10 Mostly Cloudy BKN012 80 74     82%   85 30.11        
Jul 15 09:05 N 6 10 Mostly Clear FEW007 FEW012 79 74     85%   83 30.12        
Jul 15 08:53 N 3 10 Mostly Clear FEW012 77 74     90%   79 30.12 30.1      
Jul 15 08:25 N 5 10 Mostly Clear FEW006 FEW090 76 73     91%   77 30.12        
Jul 15 07:53 NNW 5 10 Mostly Clear FEW090 74 73     97%   76 30.11 30.1      
Jul 15 06:53 Calm 9 Clear CLR 71 71     100%   73 30.1 30.09      
Jul 15 05:53 Calm 8 Clear CLR 70 70     100%     30.09 30.08      
Jul 15 05:25 Calm 6 Fog/Mist SCT001 70 69     97%     30.08        
Jul 15 05:19 Calm 2.5 Fog/Mist BKN001 70 69     97%     30.08        
Jul 15 04:53 Calm 0.5 Fog VV001 70 70     100%     30.08 30.07      
Jul 15 04:46 Calm 0.5 Fog VV001 70 70     100%     30.08        
Jul 15 04:30 Calm 0.25 Fog VV002 71 70     96%   72 30.08        
Jul 15 04:22 Calm 0.5 Fog VV002 71 71     100%   73 30.08        
Jul 15 04:06 Calm 1.25 Fog/Mist OVC002 71 71     100%   73 30.08        
Jul 15 03:58 Calm 2 Fog/Mist OVC002 71 71     100%   73 30.08        
Jul 15 03:53 Calm 4 Fog/Mist OVC001 71 71     100%   73 30.08 30.07      
Jul 15 03:51 Calm 3 Fog/Mist OVC001 72 72     100%   73 30.08        
Jul 15 03:44 Calm 1.25 Fog/Mist OVC001 71 70     96%   72 30.08        
Jul 15 03:34 Calm 2.5 Fog/Mist BKN001 71 71     100%   73 30.08        
Jul 15 03:00 Calm 7 Mostly Clear FEW002 71 71     100%   73 30.08        
Jul 15 02:53 Calm 7 Clear CLR 72 71     97%   73 30.08 30.07      
Jul 15 01:53 Calm 8 Clear CLR 72 71     97%   73 30.08 30.06      
Jul 15 00:53 Calm 7 Clear CLR 72 71     97%   73 30.09 30.07      
Jul 14 23:53 Calm 9 Clear CLR 73 72     96%   75 30.09 30.08      
Jul 14 22:53 Calm 9 Clear CLR 73 72     96%   75 30.1 30.09      
Jul 14 21:53 Calm 10 Clear CLR 74 73     97%   76 30.09 30.08      
Jul 14 20:53 Calm 10 Clear CLR 75 74     96%   77 30.09 30.08      
Jul 14 19:53 Calm 10 Clear CLR 78 73     85%   80 30.08 30.06      
Jul 14 18:53 NNE 3 10 Clear CLR 79 72     79%   82 30.06 30.05     0
Jul 14 17:53 NW 9 10 Clear CLR 79 72     79%   82 30.07 30.06      
Jul 14 16:53 NW 10 10 Clear CLR 83 75     77%   90 30.1 30.09      
Jul 14 15:53 WNW 11 10 Mostly Clear FEW028 84 72     67%   90 30.11 30.09   0  
Jul 14 15:29 Calm 10 Mostly Clear FEW100 84 72     67%   90 30.11        
Jul 14 14:53 NNW 5 10 Thunderstorms   82 71     69%   86 30.11 30.1      
Jul 14 14:23   10 Thunderstorms   83 72     70%   88 30.09        
Jul 14 13:53 6 10 Clear CLR 90 76     64%   102 30.09 30.08 0    
Jul 14 13:40 3 10 Mostly Clear FEW007 89 73     59%   97 30.09   0    
Jul 14 13:26 WNW 3 10 Partly Cloudy FEW019 SCT046 SCT060 87 73     63%   95 30.09   0    
Jul 14 13:17 Calm 10 Mostly Cloudy BKN021 BKN045 BKN060 87 76     70%   98 30.09   0    
Notice The following observation data may not be complete
Jul 14 12:53 N 8 4 Light Rain SCT031 BKN044 OVC100   74      %     30.1 30.09 0   0
Notice The following observation data may not be complete
Jul 14 12:37 NW 7 1.75 Heavy Rain FEW025 BKN035 OVC060   73      %     30.11   0    
Jul 14 11:53 Calm 10 Clear CLR 87 77     72%   99 30.13 30.12      
Jul 14 10:53 W 3 10 Cloudy FEW042 BKN050 OVC090 84 76     77%   93 30.14 30.13      
Jul 14 09:53 5 10 Mostly Cloudy SCT040 BKN050 84 76     77%   93 30.14 30.13      
Jul 14 08:53 SW 5 10 Clear CLR 80 75     85%   85 30.13 30.12      
Jul 14 07:53 Calm 10 Partly Cloudy SCT002 75 74     96%   77 30.13 30.12      
Jul 14 06:53 Calm 8 Cloudy OVC002 73 73     100%   75 30.12 30.11      
Jul 14 06:42 Calm 8 Cloudy OVC002 73 73     100%   75 30.12        
Jul 14 06:16 Calm 5 Fog/Mist BKN001 73 72     96%   75 30.11        
Jul 14 05:53 Calm 7 Mostly Clear FEW002 73 72     96%   75 30.11 30.1      
Jul 14 05:34 SSE 3 8 Mostly Clear FEW002 73 73     100%   75 30.11        
Jul 14 04:53 Calm 10 Clear CLR 74 73     97%   76 30.11 30.1      
Jul 14 03:53 Calm 10 Clear CLR 73 73     100%   75 30.12 30.11      
Jul 14 02:53 Calm 10 Clear CLR 74 73     97%   76 30.11 30.1      
Jul 14 01:53 S 3 10 Clear CLR 74 73     97%   76 30.12 30.1      
Jul 14 00:53 S 3 10 Clear CLR 74 73     97%   76 30.12 30.11     0
Jul 13 23:53 SSE 3 10 Clear CLR 75 73     94%   77 30.13 30.12      
Jul 13 22:53 S 5 10 Clear CLR 75 74     96%   77 30.11 30.1      
Jul 13 21:53 SSE 6 10 Clear CLR 76 74     94%   78 30.09 30.08   0  
Jul 13 20:53 Calm 10 Clear CLR 75 73     94%   77 30.08 30.07      
Jul 13 19:53 Calm 10 Clear CLR 75 72     90%   76 30.07 30.06 0    
Jul 13 18:53 Calm 10 Mostly Clear FEW120 76 72     88%   77 30.09 30.08 0   0
Notice The following observation data may not be complete
Jul 13 18:00 SSE 3 10 Clear CLR   71      %     30.07        
Notice The following observation data may not be complete
Jul 13 17:53 Calm 10 Clear CLR   71      %     30.07 30.06 0    
Notice The following observation data may not be complete
Jul 13 17:22 Calm 10 Mostly Cloudy FEW049 BKN120   71      %     30.08   0    
Notice The following observation data may not be complete
Jul 13 16:53 SSW 11 10 Thunderstorms and Rain SCT023 BKN070 BKN085   72      %     30.09 30.08 0    
Notice The following observation data may not be complete
Jul 13 16:46 S 14 3 Thunderstorms and Rain and Fog/Mist SCT021 SCT028 BKN070   73      %     30.1   0    
Jul 13 16:16 E 6 10 Thunderstorms BKN028 BKN033 OVC065 87 78     75%   100 30.09        
Jul 13 15:53 SE 5 10 Mostly Cloudy SCT040 BKN050 BKN070 90 74     59%   99 30.08 30.07      
Jul 13 14:53 3 10 Partly Cloudy FEW038 SCT070 90 73     58%   98 30.09 30.08      
Jul 13 13:53 W 5 10 Mostly Cloudy SCT033 BKN045 89 75     63%   99 30.1 30.09      
Jul 13 13:22 N 7 10 Clear CLR 90 75     62%   101 30.12        
Jul 13 13:07 NW 5 10 Mostly Clear FEW090 FEW100 88 76     68%   99 30.12        
Jul 13 12:53 W 7 10 Partly Cloudy FEW031 SCT090 SCT100 87 76     70%   98 30.12 30.11      
Jul 13 12:00 SW 7 10 Mostly Clear FEW026 FEW032 88 75     66%   98 30.15        
Jul 13 11:53 W 8 10 Mostly Clear FEW026 88 75     66%   98 30.15 30.14      
Jul 13 11:42 W 8 10 Partly Cloudy SCT025 85 75     72%   93 30.15        
Jul 13 10:53 W 10 10 Mostly Cloudy FEW024 FEW030 BKN042 87 76     70%   98 30.17 30.15      
Jul 13 07:53 SSW 6 10 Clear CLR 76 73     91%   77 30.15 30.14      
Jul 13 06:53 Calm 10 Clear CLR 72 72     100%   74 30.14 30.13      
Jul 13 05:53 S 3 10 Clear CLR 71 71     100%   73 30.13 30.12      
Jul 13 04:53 Calm 9 Clear CLR 72 71     97%   73 30.12 30.11      
Jul 13 03:53 SE 3 10 Clear CLR 72 71     97%   73 30.12 30.1      
Jul 13 02:53 S 3 10 Clear CLR 73 72     96%   75 30.1 30.09      
Jul 13 01:53 SSE 5 10 Clear CLR 73 72     96%   75 30.1 30.08      
Jul 13 00:53 Calm 10 Clear CLR 74 72     94%   75 30.08 30.07      
Jul 12 23:53 Calm 10 Clear CLR 74 73     97%   76 30.08 30.07      
Jul 12 22:53 SSE 5 10 Clear CLR 75 73     94%   77 30.08 30.06      
Jul 12 21:53 S 3 10 Clear CLR 76 74     94%   78 30.06 30.05      
Jul 12 20:53 S 5 10 Clear CLR 77 74     90%   79 30.06 30.04      
Jul 12 19:53 SSE 5 10 Clear CLR 79 74     85%   83 30.07 30.05      
Jul 12 18:53 S 5 10 Clear CLR 80 74     82%   85 30.06 30.04     0
Jul 12 17:53 S 7 10 Clear CLR 81 74     79%   86 30.05 30.04      
Jul 12 17:25 S 7 10 Clear CLR 82 75     79%   89 30.06        
Notice The following observation data may not be complete
Jul 12 17:10   10 Mostly Clear FEW046          %              
Jul 12 15:53 Calm 10 Partly Cloudy SCT035 91 74     57%   101 30.06 30.04   0  
Jul 12 14:53 NNE 9 10 Clear CLR 89 77     68%   102 30.07 30.06 0    
Jul 10 14:53 SE 6 10 Mostly Clear FEW042 88 70     55%   93 30.02 30      
Jul 10 13:53 SE 6 10 Partly Cloudy SCT042 88 69     54%   92 30.03 30.02      
Jul 10 12:53 SE 9 10 Clear CLR 89 70     53%   94 30.05 30.03      
Jul 10 11:53 SSE 6 10 Clear CLR 87 70     57%   92 30.06 30.04      
Jul 10 10:53 S 6 10 Clear CLR 86 72     63%   92 30.05 30.04      
Jul 10 09:53 SE 7 10 Clear CLR 84 72     67%   90 30.06 30.05      
Jul 10 07:53 ENE 3 10 Clear CLR 76 72     88%   77 30.04 30.03      
Jul 10 06:53 Calm 10 Clear CLR 71 70     96%   72 30.04 30.02      
Jul 10 05:53 Calm 10 Clear CLR 70 69     97%     30.02 30.01      
Jul 10 04:53 Calm 9 Clear CLR 71 70     96%   72 30.01 30      
Jul 10 03:53 Calm 10 Clear CLR 72 70     93%   73 30.01 30      
Jul 10 02:53 Calm 8 Clear CLR 72 71     97%   73 30.01 30      
Jul 10 01:53 Calm 10 Clear CLR 73 72     96%   75 30.02 30.01      
Jul 10 00:53 Calm 10 Clear CLR 74 73     97%   76 30.04 30.02      
Jul 09 23:53 Calm 10 Clear CLR 74 73     97%   76 30.04 30.02      
Jul 09 22:53 Calm 10 Clear CLR 76 73     91%   77 30.04 30.02      
Jul 09 21:53 SW 5 10 Mostly Clear FEW041 78 74     87%   80 30.03 30.02      
Jul 09 19:53 ESE 5 10 Clear CLR 83 74     74%   89 30.01 30      
Jul 09 17:53 E 7 10 Clear CLR 90 70     52%   95 30.01 30      
Jul 09 15:53 3 10 Mostly Clear FEW046 92 70     49%   98 30.02 30.01      
Jul 09 13:53 3 10 Mostly Cloudy BKN045 90 71     54%   96 30.08 30.07      
Jul 09 12:53 3 10 Mostly Clear FEW037 89 70     53%   94 30.09 30.08      
Jul 09 11:53 E 3 10 Clear CLR 87 71     59%   93 30.09 30.08      
Jul 09 09:53 ESE 7 10 Clear CLR 83 73     72%   89 30.1 30.09      
Jul 09 08:53 Calm 10 Clear CLR 80 73     79%   84 30.1 30.09      
Jul 09 06:53 Calm 10 Clear CLR 72 71     97%   73 30.08 30.06      
Jul 09 05:53 Calm 10 Clear CLR 71 70     96%   72 30.07 30.06      
Jul 09 04:53 Calm 10 Clear CLR 71 70     96%   72 30.07 30.05      
Jul 09 03:53 Calm 10 Clear CLR 71 70     96%   72 30.06 30.05      
Jul 09 02:53 Calm 10 Clear CLR 71 70     96%   72 30.06 30.05      
Jul 09 01:53 Calm 10 Mostly Clear FEW041 72 71     97%   73 30.07 30.06      
Jul 09 00:53 Calm 10 Clear CLR 73 71     94%   74 30.07 30.06      
Jul 08 22:53 Calm 10 Clear CLR 74 72     94%   75 30.06 30.05      
Jul 08 21:53 Calm 10 Clear CLR 76 73     91%   77 30.06 30.05      
Jul 08 20:53 NNE 3 10 Clear CLR 77 74     90%   79 30.05 30.03      
Jul 08 19:53 Calm 10 Clear CLR 80 74     82%   85 30.03 30.02      
Jul 08 18:53 E 5 10 Clear CLR 83 68     61%   86 30.01 30      
Jul 08 15:53 NNW 7 10 Mostly Clear FEW060 85 69     59%   89 30.07 30.06      
Jul 08 14:53 NW 5 10 Clear CLR 84 73     70%   90 30.08 30.06      
Jul 08 13:53 NNE 10 10 Clear CLR 84 73     70%   90 30.08 30.07      
Jul 08 12:53 SSE 6 10 Clear CLR 83 70     65%   87 30.09 30.08      
Jul 08 11:53 Calm 10 Clear CLR 82 68     63%   85 30.11 30.09      
Jul 08 10:53 NE 8 10 Clear CLR 80 69     69%   83 30.12 30.11      
Jul 08 08:53 NNE 10 10 Mostly Cloudy FEW020 SCT037 BKN047 75 68     79%   76 30.13 30.12      
Jul 08 08:29 NNE 18 10 Cloudy SCT019 BKN030 OVC060 76 71     85%   77 30.11        
Jul 08 08:19 N 18 10 Cloudy FEW019 BKN028 OVC060 77 73     88%   79 30.1        
Jul 08 07:53 W 6 10 Partly Cloudy SCT060 78 74     87%   80 30.06 30.05      
Jul 08 06:53 SW 5 10 Mostly Clear FEW060 76 73     91%   77 30.05 30.03      
Jul 08 05:53 WSW 3 10 Mostly Cloudy SCT070 BKN110 75 73     94%   77 30.04 30.02      
Jul 08 04:53 SSW 3 10 Clear CLR 75 73     94%   77 30 29.99      
Jul 08 03:53 SSW 3 10 Clear CLR 75 73     94%   77 30 29.99      
Jul 08 02:53 SSW 3 10 Clear CLR 76 74     94%   78 30 29.99      
Jul 08 01:53 SW 3 10 Clear CLR 77 75     94%   79 30.01 30      
Jul 08 00:53 SSW 5 10 Clear CLR 78 76     93%   80 30.03 30.01      
Jul 07 23:53 SW 5 10 Clear CLR 79 76     90%   83 30.03 30.01      
Jul 07 22:53 SSW 6 10 Clear CLR 79 77     94%   83 30.03 30.01      
Jul 07 21:53 Calm 10 Clear CLR 79 77     94%   83 30.03 30.01      
Jul 07 19:53 Calm 10 Clear CLR 86 79     80%   100 30.01 30      
Jul 07 18:53 Calm 10 Clear CLR 91 72     54%   99 30 29.98      
Jul 07 17:53 WSW 6 10 Clear CLR 93 72     51%   101 30 29.98      
Jul 07 14:53 WSW 5 10 Partly Cloudy FEW046 SCT055 93 73     52%   102 30.04 30.03      
Jul 07 13:53 3 10 Mostly Clear FEW044 92 74     56%   102 30.06 30.05      
Jul 07 12:53 WSW 7 10 Mostly Cloudy SCT038 BKN045 90 74     59%   99 30.09 30.07      
Jul 07 11:53 W 7 10 Clear CLR 88 73     61%   96 30.1 30.09      
Jul 07 10:53 WSW 7 10 Clear CLR 87 74     65%   95 30.12 30.1      
Jul 07 09:53 W 8 10 Clear CLR 84 73     70%   90 30.12 30.11      
Jul 07 07:53 3 10 Clear CLR 77 72     84%   78 30.11 30.1      
Jul 07 06:53 Calm 10 Clear CLR 73 71     94%   74 30.09 30.08      
Jul 07 05:53 Calm 10 Clear CLR 72 70     93%   73 30.08 30.07      
Jul 07 04:53 WSW 3 10 Clear CLR 72 69     91%   73 30.07 30.06      
Jul 07 03:53 WSW 5 10 Clear CLR 72 69     91%   73 30.07 30.06      
Jul 07 02:53 SW 5 10 Clear CLR 73 70     90%   74 30.07 30.06      
Jul 07 01:53 Calm 10 Clear CLR 73 71     94%   74 30.07 30.06      
Jul 07 00:53 SSW 7 10 Clear CLR 74 72     94%   75 30.07 30.06      
Jul 06 23:53 Calm 10 Clear CLR 74 74     100%   76 30.09 30.08      
Jul 06 22:53 SW 3 10 Clear CLR 76 74     94%   78 30.09 30.08      
Jul 06 21:53 Calm 10 Clear CLR 77 75     94%   79 30.06 30.05      
Jul 06 20:53 Calm 10 Clear CLR 78 74     87%   80 30.06 30.05      
Jul 06 19:53 S 5 10 Clear CLR 79 75     88%   83 30.05 30.04      
Jul 06 18:53 SSE 5 10 Clear CLR 81 74     79%   86 30.04 30.02      
Jul 06 17:53 SSW 9 10 Clear CLR 83 74     74%   89 30.05 30.03      
Jul 06 16:53 SSW 5 10 Clear CLR 86 77     75%   97 30.07 30.05      
Jul 06 15:53 Calm 10 Mostly Clear FEW041 88 74     63%   97 30.05 30.04      
Jul 06 14:53 WSW 6 10 Mostly Clear FEW036 90 74     59%   99 30.07 30.06      
Jul 06 13:53 3 10 Clear CLR 88 74     63%   97 30.1 30.09      
Jul 05 15:53 W 7 10 Clear CLR 89 70     53%   94 30.04 30.03      
Jul 05 14:53 SW 9 10 Clear CLR 89 70     53%   94 30.03 30.02      
Jul 05 13:53 SSW 10 10 Clear CLR 87 72     61%   94 30.04 30.03      
Jul 05 12:53 S 7 10 Clear CLR 85 71     63%   90 30.05 30.04      
Jul 05 11:53 WNW 8 10 Partly Cloudy SCT019 82 72     72%   87 30.11 30.09      
Jul 05 11:20 W 11 10 Mostly Cloudy FEW021 SCT027 BKN033 81 73     77%   86 30.11        
Jul 05 10:53 W 10 10 Mostly Cloudy BKN021 BKN027 BKN033 81 73     77%   86 30.12 30.11      
Jul 05 09:53 SW 7 10 Mostly Clear FEW043 81 72     74%   85 30.13 30.12      
Jul 05 08:53 WSW 5 10 Partly Cloudy SCT036 SCT046 78 73     85%   80 30.11 30.1      
Jul 05 08:19 5 10 Mostly Cloudy SCT009 BKN036 79 74     85%   83 30.09        
Jul 05 08:10 WNW 5 10 Mostly Cloudy SCT009 BKN018 BKN026 78 75     90%   80 30.08        
Jul 05 08:03 W 3 10 Cloudy BKN009 BKN018 OVC031 77 75     94%   79 30.08        
Jul 05 07:53 SW 5 10 Mostly Cloudy FEW010 BKN018 BKN025 77 75     94%   79 30.07 30.06      
Jul 05 07:41 3 10 Mostly Cloudy SCT012 SCT018 BKN022 77 75     94%   79 30.08        
Jul 05 06:53 SW 6 10 Mostly Cloudy BKN012 76 74     94%   78 30.06 30.05      
Jul 05 05:53 S 7 10 Clear CLR 75 74     96%   77 30.02 30.01      
Jul 05 04:53 S 8 10 Clear CLR 75 74     96%   77 30.01 30      
Jul 05 03:53 S 7 10 Mostly Cloudy BKN090 75 73     94%   77 30.01 29.99      
Jul 05 02:53 SSE 6 10 Partly Cloudy SCT090 75 73     94%   77 30 29.99      
Jul 05 00:53 Calm 10 Clear CLR 76 74     94%   78 30.02 30.01      
Jul 04 23:53 Calm 10 Mostly Cloudy BKN080 77 75     94%   79 30.02 30.01      
Jul 04 22:53 S 5 10 Clear CLR 77 76     96%   79 30.01 30      
Jul 04 21:53 S 5 10 Clear CLR 79 77     94%   83 30 29.99      
Jul 04 20:53 SSE 5 10 Clear CLR 80 77     90%   86 29.97 29.96      
Jul 04 19:53 Calm 10 Clear CLR 83 77     82%   92 29.97 29.96      
Jul 04 18:53 WSW 3 10 Clear CLR 82 77     85%   90 29.97 29.96 0   0
Jul 04 18:23 SW 3 10 Mostly Cloudy FEW044 SCT080 BKN120 82 78     88%   91 29.97   0    
Jul 04 18:10 SW 7 10 Light Rain SCT038 BKN120 82 77     85%   90 29.96   0    
Jul 04 17:53 S 7 10 Thunderstorms and Rain SCT033 BKN040 84 77     80%   94 29.98 29.96 0    
Jul 04 17:36 Calm 10 Thunderstorms SCT032 SCT041 BKN050 85 77     77%   95 29.98        
Jul 04 17:18 S 6 10 Mostly Cloudy FEW034 BKN047 BKN060 86 76     72%   96 29.97        
Jul 04 16:53 SSW 7 10 Mostly Cloudy SCT030 BKN042 BKN049 87 76     70%   98 29.98 29.97      
Jul 04 15:53 S 7 10 Partly Cloudy FEW035 SCT044 87 76     70%   98 29.99 29.98      
Jul 04 14:53 SSE 9 10 Mostly Cloudy SCT027 BKN035 BKN044 86 76     72%   96 30 29.99      
Jul 04 14:41 S 8 10 Mostly Cloudy BKN027 BKN035 86 76     72%   96 30.01        
Jul 04 13:53 S 9 10 Mostly Clear FEW031 87 75     68%   97 30 29.98      
Jul 04 12:53 SSW 10 10 Partly Cloudy FEW027 SCT033 88 74     63%   97 30.01 30      
Jul 04 11:53 SSW 8 10 Mostly Clear FEW025 84 75     74%   92 30.03 30.02      
Jul 04 10:53 S 10 10 Mostly Clear FEW021 83 76     79%   91 30.02 30.01      
Jul 04 09:53 S 14 10 Partly Cloudy SCT015 80 75     85%   85 30.01 30      
Jul 04 09:40 S 9 10 Partly Cloudy SCT015 80 76     87%   85 30.01        
Jul 04 08:53 S 10 10 Mostly Cloudy BKN013 79 76     90%   83 30.02 30.01      
Jul 04 08:27 S 10 10 Mostly Cloudy BKN013 78 76     93%   80 30.03        
Jul 04 08:18 SSW 10 10 Mostly Cloudy BKN016 78 75     90%   80 30.03        
Jul 04 07:53 S 9 10 Mostly Clear FEW009 FEW080 77 75     94%   79 30.03 30.02      
Jul 04 07:48 SSW 6 10 Partly Cloudy FEW009 SCT080 75 75     100%   77 30.03        
Jul 04 06:53 S 7 8 Clear CLR 75 74     96%   77 30.02 30.01      
Jul 04 05:53 S 5 8 Clear CLR 74 73     97%   76 30.01 30      
Jul 04 04:53 Calm 9 Clear CLR 75 73     94%   77 30 29.98      
Jul 04 03:53 S 5 10 Clear CLR 75 74     96%   77 30 29.99      
Jul 04 02:53 S 5 10 Clear CLR 76 73     91%   77 30 29.99      
Jul 04 00:53 Calm 7 Clear CLR 75 75     100%   77 30.02 30.01      
Jul 03 23:53 Calm 9 Clear CLR 77 76     96%   79 29.99 29.98      
Jul 03 22:53 Calm 9 Clear CLR 78 76     93%   80 30 29.98      
Jul 03 21:53 Calm 10 Clear CLR 79 77     94%   83 29.99 29.97      
Jul 03 20:53 Calm 10 Mostly Clear FEW038 81 78     91%   89 29.98 29.96      
Jul 03 19:53 Calm 10 Clear CLR 85 77     77%   95 29.98 29.97      
Jul 03 18:53 Calm 10 Clear CLR 87 74     65%   95 29.98 29.97     0
Jul 03 17:53 WSW 3 10 Clear CLR 88 73     61%   96 29.99 29.98      
Jul 03 16:53 SW 9 10 Clear CLR 87 74     65%   95 30.01 29.99      
Jul 03 15:53 7 10 Partly Cloudy SCT026 86 75     70%   95 30.02 30.01   0  
Jul 03 14:53 SW 6 10 Clear CLR 84 75     74%   92 30.03 30.02 0    
Jul 03 12:53 SW 9 10 Mostly Clear FEW029 85 74     70%   92 30.07 30.06     0
Jul 03 11:53 6 10 Clear CLR 83 74     74%   89 30.08 30.06      
Jul 03 10:53 SSW 10 10 Clear CLR 79 73     82%   82 30.08 30.07      
Jul 03 09:53 SSW 7 10 Clear CLR 74 72     94%   75 30.09 30.08 0 0  
Jul 03 08:53 6 4 Light Rain and Fog/Mist FEW013 BKN036 OVC060 73 71     94%   74 30.12 30.1 0    
Jul 03 08:43 W 7 1.75 Heavy Rain and Fog/Mist FEW014 BKN036 OVC050 73 71     94%   74 30.11   0    
Jul 03 07:53 W 3 10 Clear CLR 74 71     91%   75 30.09 30.08      
Jul 03 06:53 SSW 3 10 Clear CLR 72 70     93%   73 30.04 30.03     0
Jul 03 05:53 S 7 10 Clear CLR 72 70     93%   73 30.04 30.03 0    
Jul 03 04:53 SSW 3 9 Light Rain FEW024 BKN046 OVC100 73 70     90%   74 30.04 30.03 0    
Jul 03 04:38 W 6 3 Thunderstorms and Rain and Fog/Mist FEW022 BKN039 OVC047 75 71     88%   76 30.08   0    
Jul 03 04:29 W 7 9 Light Rain FEW015 BKN022 OVC041 75 72     90%   76 30.08   0    
Jul 03 04:09 WNW 8 10 Cloudy FEW009 BKN015 OVC060 77 73     88%   79 30.06        
Jul 03 04:02 W 11 10 Cloudy SCT011 BKN017 OVC060 77 74     90%   79 30.07        
Jul 03 03:53 W 9 10 Mostly Cloudy FEW009 SCT013 BKN060 77 75     94%   79 30.06 30.05      
Jul 03 02:53 S 6 10 Clear CLR 77 75     94%   79 30.04 30.03      
Jul 03 01:53 SSE 6 10 Mostly Cloudy BKN047 78 75     90%   80 30.04 30.02      
Jul 03 00:53 Calm 10 Mostly Clear FEW046 77 76     96%   79 30.05 30.03      
Jul 02 23:53 ESE 3 10 Clear CLR 78 76     93%   80 30.05 30.04      
Jul 02 22:53 ESE 6 10 Clear CLR 78 76     93%   80 30.05 30.03      
Jul 02 21:53 ESE 6 10 Clear CLR 79 76     90%   83 30.04 30.03      
Jul 02 20:53 ESE 7 10 Clear CLR 81 75     82%   87 30.04 30.03      
Jul 02 19:53 SE 5 10 Clear CLR 85 75     72%   93 30.04 30.03      
Jul 02 19:45 SE 3 10 Mostly Clear FEW003 85 75     72%   93 30.05        
Jul 02 18:53 SE 5 10 Clear CLR 87 73     63%   95 30.04 30.03      
Jul 02 17:53 SSE 10 10 Clear CLR 88 73     61%   96 30.04 30.03      
Jul 02 16:53 SSW 6 10 Clear CLR 89 73     59%   97 30.07 30.06      
Jul 02 15:53 SW 6 10 Mostly Clear FEW037 88 72     59%   95 30.1 30.09      
Jul 02 14:53 SW 8 10 Mostly Clear FEW034 FEW045 88 73     61%   96 30.13 30.11      
Jul 02 13:53 S 9 10 Mostly Cloudy BKN035 BKN045 87 74     65%   95 30.15 30.14      
Jul 02 12:53 SW 6 10 Partly Cloudy FEW026 SCT036 SCT045 85 74     70%   92 30.16 30.15     0
Jul 02 11:53 SSW 7 10 Partly Cloudy SCT018 SCT025 83 74     74%   89 30.17 30.16      
Jul 02 10:53 SSW 5 10 Mostly Clear FEW065 81 74     79%   86 30.18 30.16      
Jul 02 09:53 SE 3 10 Mostly Cloudy BKN060 74 72     94%   75 30.18 30.17   0  
Jul 02 08:53 Calm 10 Mostly Cloudy FEW002 SCT032 BKN110 71 70     96%   72 30.19 30.18 0    
Jul 02 08:22 NNW 8 3 Light Rain and Fog/Mist FEW005 BKN080 OVC100 71 70     96%   72 30.18   0    
Jul 02 08:14 E 6 1.75 Heavy Rain and Fog/Mist SCT043 BKN075 OVC100 71 70     96%   72 30.15   0    
Jul 02 08:08 S 6 4 Rain and Fog/Mist FEW047 BKN080 OVC095 71 70     96%   72 30.17   0    
Jul 02 08:02 Calm 2 Light Rain and Fog/Mist FEW035 BKN070 OVC100 71 70     96%   72 30.17   0    
Jul 02 07:53 SSW 3 10 Light Rain FEW004 BKN070 OVC080 71 70     96%   72 30.18 30.17 0    
Jul 02 07:34 W 7 10 Thunderstorms and Rain FEW004 BKN070 BKN110 70 70     100%     30.18   0    
Jul 02 07:19 NNE 6 7 Light Rain FEW047 SCT070 BKN110 71 69     93%   72 30.14   0    
Jul 02 06:53 Calm 10 Light Rain FEW060 SCT080 BKN100 70 70     100%     30.14 30.13 0   1
Jul 02 05:53 S 8 9 Light Rain BKN110 70 69     97%     30.14 30.13 0    
Jul 02 04:53 S 7 5 Rain and Fog/Mist SCT100 SCT120 70 70     100%     30.12 30.11 0    
Jul 02 04:48 S 7 6 Rain and Fog/Mist FEW100 FEW120 70 70     100%     30.12   0    
Jul 02 04:33 SSW 7 10 Thunderstorms and Rain FEW110 70 69     97%     30.12   0    
Jul 02 03:53 S 9 8 Light Rain BKN110 70 69     97%     30.1 30.09 0 0  
Jul 02 03:40 S 8 6 Light Rain and Fog/Mist SCT004 BKN110 70 69     97%     30.09   0    
Jul 02 02:53 S 5 10 Mostly Cloudy BKN003 70 69     97%     30.11 30.1 0    
Jul 02 02:49 S 6 10 Light Rain BKN003 BKN120 70 70     100%     30.11   0    
Jul 02 02:37 SSE 5 10 Light Rain SCT003 SCT075 BKN090 70 69     97%     30.1   0    
Jul 02 01:53 Calm 6 Rain and Fog/Mist FEW070 FEW080 BKN110 70 69     97%     30.1 30.09 0    
Jul 02 01:24 S 6 3 Heavy Rain and Fog/Mist OVC050 70 69     97%     30.12   0    
Jul 02 01:13 SSW 6 1.25 Heavy Rain and Fog/Mist BKN043 OVC070 70 69     97%     30.14   0    
Jul 02 01:04 SSW 5 2 Heavy Rain and Fog/Mist OVC043 70 69     97%     30.14   0    
Jul 02 00:53 WNW 11 1.75 Heavy Rain and Fog/Mist SCT035 BKN045 OVC060 70 68     93%     30.14 30.13 0   0
Jul 02 00:44 W 9 1.75 Heavy Rain and Fog/Mist FEW014 BKN045 OVC055 70 69     97%     30.13   0    
Jul 02 00:34 WSW 10 7 Light Rain BKN055 BKN070 OVC110 70 69     97%     30.12   0    
Jul 02 00:26 WNW 8 5 Rain and Fog/Mist FEW021 BKN050 OVC085 70 69     97%     30.12   0    
Jul 02 00:11 E 5 5 Light Rain and Fog/Mist SCT039 BKN050 OVC120 70 69     97%     30.1   0    
Jul 01 23:53 NNE 7 5 Light Rain and Fog/Mist FEW027 BKN048 OVC080 70 69     97%     30.12 30.1 0    
Jul 01 23:32 WNW 7 10 Mostly Cloudy BKN050 BKN060 71 69     93%   72 30.12        
Jul 01 22:53 SSE 3 10 Clear CLR 71 69     93%   72 30.1 30.09      
Jul 01 21:53 Calm 10 Partly Cloudy SCT090 71 70     96%   72 30.1 30.09   0  
Jul 01 20:53 E 3 10 Mostly Clear FEW085 71 70     96%   72 30.1 30.09      
Jul 01 20:15 ESE 5 10 Partly Cloudy SCT004 71 70     96%   72 30.09        
Jul 01 19:53 Calm 10 Clear CLR 72 70     93%   73 30.08 30.07 0    
Jul 01 18:53 Calm 10 Light Rain FEW065 BKN100 OVC110 71 70     96%   72 30.07 30.06 0   0
Jul 01 18:16 E 7 10 Partly Cloudy SCT100 71 70     96%   72 30.07   0    
Jul 01 18:03 NNE 6 10 Light Rain BKN110 71 69     93%   72 30.07   0    
Jul 01 17:53 Calm 10 Thunderstorms and Rain FEW095 SCT120 71 69     93%   72 30.07 30.06 0    
Jul 01 17:32 N 6 10 Thunderstorms FEW090 SCT110 71 70     96%   72 30.06   0    
Jul 01 17:17 ESE 3 10 Light Rain BKN110 71 69     93%   72 30.05   0    
Jul 01 16:53 SSW 6 4 Thunderstorms and Rain and Fog/Mist   71 69     93%   72 30.1 30.09 0    
Jul 01 16:49 SSW 9 2.5 Thunderstorms and Rain and Fog/Mist   72 70     94%   73 30.1   0    
Jul 01 16:41 SW 13   Thunderstorms and Heavy Rain   72 69     91%   73 30.12   0    
Jul 01 16:26     Light Rain   84 72     67%   90 30.1   0    
Jul 01 16:13 WNW 9 10 Mostly Clear FEW039 88 74     63%   97 30.05        
Jul 01 15:53 W 9 10 Partly Cloudy SCT040 91 74     57%   101 30.04 30.03      
Jul 01 14:53   10 Mostly Clear FEW039 90 73     58%   98 30.06 30.05      
Jul 01 13:53 W 10 10 Clear CLR 89 73     59%   97 30.08 30.07      
Jul 01 12:53 WSW 11 10 Clear CLR 87 72     61%   94 30.08 30.06      
Jul 01 11:53 7 10 Mostly Clear FEW026 86 74     67%   94 30.09 30.08      
Jul 01 10:53 WSW 7 10 Clear CLR 85 74     70%   92 30.09 30.08      
Jul 01 09:53 WSW 6 10 Mostly Clear FEW120 80 73     79%   84 30.08 30.07      
Jul 01 08:36 WSW 7 10 Mostly Clear FEW005 74 71     91%   75 30.07        
Jul 01 07:53 S 6 10 Clear CLR 71 70     96%   72 30.05 30.04      
Jul 01 06:53 ENE 3 10 Mostly Clear FEW075 FEW095 70 69     97%     30.03 30.01 0   0
Jul 01 06:24 SE 5 10 Mostly Cloudy FEW080 SCT100 BKN120 70 69     97%     30.05        
Jul 01 06:13 SSE 5 10 Thunderstorms FEW090 SCT110 70 69     97%     30.05        
Jul 01 05:53 E 7 10 Partly Cloudy FEW090 SCT110 71 68     90%   72 30.05 30.03      
Jul 01 05:28 WSW 7 10 Mostly Cloudy BKN046 BKN055 70 68     93%     30.08        
Jul 01 04:53 3 10 Mostly Cloudy BKN050 BKN100 70 69     97%     30.06 30.05      
Jul 01 03:53 S 5 10 Clear CLR 70 69     97%     30.04 30.02 0 0  
Jul 01 02:39 ESE 5 10 Thunderstorms and Rain FEW031 BKN065 OVC120 71 69     93%   72 30.06   0    
Jul 01 02:09 NNW 14 4 Heavy Rain and Fog/Mist FEW020 BKN032 OVC041 72 68     87%   73 30.08   0    
Jul 01 01:53   10 Mostly Cloudy BKN032 BKN065 BKN080 76 68     76%   77 30.06 30.05      
Jul 01 00:53 SSW 5 10 Clear CLR 77 74     90%   79 30.03 30.01      
Jun 30 23:53 S 5 10 Clear CLR 77 73     88%   79 30.04 30.03      
Jun 30 21:53 SSE 5 10 Clear CLR 81 74     79%   86 29.97 29.95      
Jun 30 20:53 S 8 10 Mostly Clear FEW043 83 76     79%   91 29.93 29.91      
Jun 30 19:53 S 5 10 Clear CLR 88 74     63%   97 29.92 29.91      
Jun 30 18:53 SSE 5 10 Clear CLR 90 75     62%   101 29.92 29.91     0
Jun 30 17:53 E 6 10 Mostly Cloudy SCT040 BKN048 BKN060 88 77     70%   100 29.94 29.93      
Jun 30 16:53 ENE 8 10 Cloudy BKN039 OVC046 87 76     70%   98 29.94 29.93      
Jun 30 15:53 SSE 8 10 Mostly Clear FEW041 91 74     57%   101 29.94 29.93   0  
Jun 30 14:53 W 3 10 Mostly Cloudy BKN037 90 73     58%   98 29.98 29.97      
Jun 30 13:53 3 10 Partly Cloudy SCT032 89 74     61%   98 30.01 30 0    
Jun 30 12:53 WNW 7 10 Mostly Cloudy FEW033 FEW040 BKN065 89 74     61%   98 30.04 30.03      
Jun 30 11:53 SW 8 10 Mostly Cloudy SCT032 BKN055 85 73     68%   92 30.03 30.02      
Jun 30 10:53 SSW 8 10 Mostly Cloudy BKN055 84 74     72%   91 30.02 30.01      
Jun 30 09:53 SSW 9 10 Partly Cloudy FEW023 SCT041 85 75     72%   93 30 29.99      
Jun 30 09:24 SW 9 10 Mostly Cloudy FEW019 SCT026 BKN034 82 74     77%   88 30        
Jun 30 08:53 SW 9 10 Mostly Cloudy BKN017 BKN026 81 75     82%   87 30 29.98      
Jun 30 08:41 SSW 9 10 Mostly Cloudy BKN017 BKN022 82 75     79%   89 29.99        
Jun 30 07:53 S 6 10 Cloudy OVC033 79 75     88%   83 29.98 29.97      
Jun 30 06:53 S 6 10 Cloudy OVC030 77 74     90%   79 29.96 29.95      
Jun 30 06:33 S 5 10 Cloudy FEW016 OVC030 77 74     90%   79 29.96        
Jun 30 05:53 S 6 10 Cloudy OVC027 78 74     87%   80 29.95 29.94      
Jun 30 04:53 S 7 10 Cloudy OVC016 78 74     87%   80 29.93 29.92      
Jun 30 04:40 S 9 10 Cloudy OVC015 78 74     87%   80 29.93        
Jun 30 03:53 S 13 10 Cloudy OVC012 77 75     94%   79 29.91 29.89      
Jun 30 02:53 S 8 10 Cloudy OVC011 77 75     94%   79 29.9 29.88      
Jun 30 02:28 S 10 10 Cloudy OVC010 76 75     97%   78 29.9        
Jun 30 00:53 SSE 7 10 Partly Cloudy SCT011 77 75     94%   79 29.91 29.9      
Jun 29 23:53 SSE 5 10 Clear CLR 77 76     96%   79 29.91 29.89      
Jun 29 22:53 SE 8 10 Partly Cloudy SCT027 78 75     90%   80 29.89 29.88      
Jun 29 22:44 SE 7 10 Mostly Cloudy BKN027 79 75     88%   83 29.89        
Jun 29 21:53 SE 6 10 Clear CLR 79 75     88%   83 29.88 29.86      
Jun 29 20:53 ESE 3 10 Clear CLR 80 75     85%   85 29.88 29.86      
Jun 29 19:53 ESE 5 10 Clear CLR 84 74     72%   91 29.88 29.87      
Jun 29 18:53 ESE 7 10 Clear CLR 86 73     65%   93 29.88 29.87      
Jun 29 17:53 SE 6 10 Mostly Clear FEW031 86 73     65%   93 29.89 29.88      
Jun 29 16:53 SE 8 10 Mostly Cloudy FEW036 BKN070 88 73     61%   96 29.9 29.89      
Jun 29 15:53 ESE 9 10 Partly Cloudy FEW030 SCT041 SCT060 87 73     63%   95 29.91 29.89      
Jun 29 14:53 SE 5 10 Partly Cloudy FEW030 SCT041 86 73     65%   93 29.91 29.89      
Jun 29 13:53 3 10 Mostly Cloudy FEW026 SCT033 BKN046 85 72     65%   91 29.92 29.91      
Jun 29 13:37 S 7 10 Cloudy SCT024 BKN033 OVC046 83 72     70%   88 29.93        
Jun 29 13:21 E 7 10 Cloudy BKN023 BKN027 OVC048 83 72     70%   88 29.93        
Jun 29 12:53 5 10 Cloudy SCT038 OVC047 82 72     72%   87 29.94 29.93      
Jun 29 12:26 S 8 10 Cloudy FEW021 SCT026 OVC045 82 71     69%   86 29.95        
Jun 29 11:53 S 9 10 Cloudy SCT021 BKN027 OVC044 81 72     74%   85 29.96 29.95      
Jun 29 11:11 SSE 10 10 Cloudy SCT021 BKN031 OVC047 80 71     74%   84 29.96        
Jun 29 10:53 SE 7 10 Cloudy SCT019 BKN024 OVC045 80 72     76%   84 29.96 29.95      
Jun 29 09:53 SSE 8 10 Cloudy BKN016 OVC046 78 71     79%   79 29.96 29.95      
Jun 29 09:36 SE 9 10 Clear   78 71     79%   79 29.96        
Jun 29 09:19 SE 9 10 Clear   77 71     82%   78 29.96        
Jun 29 08:53 SE 8 10 Clear   75 71     88%   76 29.96 29.94      
Jun 29 07:53 SE 8 10 Cloudy FEW009 OVC023 74 71     91%   75 29.95 29.94      
Jun 29 07:14 SE 7 10 Cloudy FEW007 OVC019 74 71     91%   75 29.95        
Jun 29 06:53 ESE 6 10 Cloudy OVC018 73 71     94%   74 29.95 29.94      
Jun 29 05:53 SE 5 10 Cloudy OVC019 73 70     90%   74 29.95 29.94      
Jun 29 03:53 SSE 7 10 Cloudy OVC015 73 70     90%   74 29.94 29.93      
Jun 29 03:25 SSE 9 10 Mostly Cloudy BKN013 73 71     94%   74 29.94        
Jun 29 02:53 SE 5 10 Clear CLR 72 71     97%   73 29.94 29.93      
Jun 29 01:53 SE 3 10 Mostly Clear FEW018 73 71     94%   74 29.94 29.93      
Jun 29 00:53 SSE 5 10 Clear CLR 74 71     91%   75 29.95 29.93      
Jun 28 23:53 SE 5 10 Clear CLR 75 71     88%   76 29.94 29.93      
Jun 28 22:53 SSE 5 10 Clear CLR 77 71     82%   78 29.94 29.93      
Jun 28 21:53 ESE 5 10 Partly Cloudy FEW047 SCT055 77 71     82%   78 29.93 29.91      
Jun 28 20:53 E 3 10 Clear CLR 78 71     79%   79 29.91 29.9      
Jun 28 19:53 E 5 10 Clear CLR 83 68     61%   86 29.91 29.9      
Jun 28 18:53 SE 8 10 Clear CLR 86 67     53%   89 29.91 29.9      
Jun 28 17:53 SE 8 10 Clear CLR 87 65     48%   89 29.92 29.91      
Jun 28 16:53 SE 9 10 Mostly Clear FEW050 88 65     47%   90 29.94 29.93      
Jun 28 15:53 ESE 9 10 Partly Cloudy SCT049 88 68     52%   92 29.96 29.94      
Jun 28 14:53 S 10 10 Clear CLR 88 68     52%   92 29.97 29.96      
Jun 28 13:53 SE 9 10 Clear CLR 88 67     50%   91 29.99 29.98      
Jun 28 12:53 SE 10 10 Mostly Clear FEW046 85 66     53%   87 30.01 29.99      
Jun 28 11:53 ESE 7 10 Clear CLR 85 68     57%   88 30.01 30      
Jun 28 10:53 SSE 8 10 Clear CLR 83 68     61%   86 30.02 30.01      
Jun 28 09:53 SE 9 10 Clear CLR 81 67     62%   83 30.03 30.02      
Jun 28 08:53 S 6 10 Clear CLR 77 67     71%   78 30.04 30.02      
Jun 28 07:53 E 3 10 Clear CLR 72 68     87%   73 30.03 30.01      
Jun 28 06:53 Calm 9 Clear CLR 67 66     97%     30.02 30      
Jun 28 05:53 Calm 10 Clear CLR 66 64     93%     30 29.98      
Jun 28 04:53 Calm 10 Clear CLR 66 65     96%     30 29.98      
Jun 28 03:53 Calm 10 Clear CLR 66 65     96%     30 29.99      
Jun 28 02:53 Calm 10 Clear CLR 67 66     97%     30.01 30      
Jun 28 01:53 Calm 10 Clear CLR 68 66     93%     30.01 29.99      
Jun 28 00:53 Calm 10 Clear CLR 68 66     93%     30.02 30.01      
Jun 27 23:53 Calm 10 Clear CLR 70 67     90%     30.02 30      
Jun 27 22:53 Calm 10 Clear CLR 70 67     90%     30.01 30      
Jun 27 21:53 Calm 10 Clear CLR 72 68     87%   73 30.01 29.99      
Jun 27 20:53 Calm 10 Clear CLR 76 67     74%   77 30 29.99      
Jun 27 19:53 E 5 10 Clear CLR 79 67     67%   80 30 29.98      
Jun 27 18:53 E 7 10 Partly Cloudy SCT060 84 65     53%   86 29.99 29.97      
Jun 27 17:53 E 8 10 Mostly Cloudy BKN060 85 65     51%   87 29.99 29.98      
Jun 27 16:53 E 7 10 Mostly Clear FEW055 87 63     45%   88 30 29.98      
Jun 27 15:53 E 9 10 Mostly Clear FEW055 87 63     45%   88 30.02 30.01      
Jun 27 14:53 E 3 10 Partly Cloudy SCT050 86 63     46%   87 30.02 30.01      
Jun 27 13:53 E 10 10 Partly Cloudy SCT050 86 63     46%   87 30.04 30.03      
Jun 27 12:53 NNE 9 10 Clear CLR 86 64     48%   87 30.06 30.05      
Jun 27 11:53 Calm 10 Partly Cloudy SCT047 SCT055 85 64     50%   86 30.07 30.05      
Jun 27 09:53 ENE 3 10 Clear CLR 81 64     56%   83 30.08 30.07      
Jun 27 08:53 Calm 10 Clear CLR 75 67     76%   76 30.09 30.08      
Jun 27 07:53 NE 5 10 Partly Cloudy SCT070 71 67     87%   72 30.08 30.06      
Jun 27 06:53 Calm 10 Mostly Clear FEW075 66 65     96%     30.07 30.06      
Jun 27 05:53 NNW 3 10 Clear CLR 64 63     96%     30.07 30.05      
Jun 27 04:53 Calm 10 Clear CLR 65 63     93%     30.06 30.04      
Jun 27 03:53 Calm 10 Clear CLR 66 64     93%     30.05 30.04      
Jun 27 02:53 Calm 10 Clear CLR 67 64     90%     30.06 30.05      
Jun 27 01:53 Calm 10 Clear CLR 66 64     93%     30.07 30.06      
Jun 27 00:53 Calm 10 Clear CLR 67 64     90%     30.07 30.06      
Jun 26 23:53 Calm 10 Clear CLR 68 64     87%     30.08 30.06      
Jun 26 22:53 Calm 10 Clear CLR 69 65     87%     30.07 30.06      
Jun 26 21:53 Calm 10 Clear CLR 71 65     81%   72 30.07 30.05      
Jun 26 20:53 Calm 10 Clear CLR 73 66     79%   74 30.06 30.05      
Jun 26 19:53 E 5 10 Clear CLR 78 60     54%   78 30.05 30.04      
Jun 26 18:53 E 6 10 Clear CLR 83 60     46%   83 30.04 30.03      
Jun 26 17:53 ENE 8 10 Clear CLR 85 58     40%   84 30.04 30.03      
Jun 26 16:53 NE 7 10 Clear CLR 86 59     40%   85 30.06 30.05      
Jun 26 15:53 NNE 6 10 Clear CLR 86 58     39%   85 30.08 30.07      
Jun 26 14:53 ESE 8 10 Clear CLR 86 58     39%   85 30.1 30.09      
Jun 26 13:53 SE 5 10 Clear CLR 84 58     41%   83 30.13 30.12      
Jun 26 12:53 NE 7 10 Clear CLR 84 63     49%   85 30.15 30.14      
Jun 26 11:53 ESE 8 10 Clear CLR 82 60     47%   82 30.18 30.17      
Jun 26 10:53 ENE 7 10 Clear CLR 81 63     54%   82 30.2 30.19      
Jun 26 09:53 ENE 7 10 Clear CLR 79 64     60%   79 30.2 30.19      
Jun 26 08:53 NNE 3 10 Clear CLR 75 64     69%   75 30.2 30.19      
Jun 26 07:53 Calm 10 Clear CLR 70 65     84%     30.19 30.18      
Jun 26 06:53 Calm 10 Clear CLR 64 63     96%     30.19 30.18      
Jun 26 05:53 Calm 10 Clear CLR 63 61     93%     30.18 30.17      
Jun 26 04:53 Calm 10 Mostly Cloudy BKN110 63 62     97%     30.19 30.18      
Jun 26 03:53 Calm 10 Clear CLR 63 62     97%     30.18 30.17      
Jun 26 02:53 Calm 10 Clear CLR 64 62     93%     30.17 30.16      
Jun 26 01:53 Calm 10 Clear CLR 64 63     96%     30.18 30.17      
Jun 26 00:53 Calm 10 Clear CLR 65 64     97%     30.2 30.19      
Jun 25 23:53 Calm 10 Clear CLR 66 64     93%     30.2 30.19      
Jun 25 22:53 Calm 10 Clear   67 65     93%     30.18 30.17      
Jun 25 21:53 Calm 10 Clear CLR 69 65     87%     30.18 30.17      
Jun 25 20:53 Calm 10 Clear CLR 71 66     84%   72 30.17 30.16      
Jun 25 19:53 NE 3 10 Clear CLR 78 64     62%   79 30.16 30.14      
Jun 25 18:53 E 6 10 Clear CLR 82 61     49%   83 30.16 30.15      
Jun 25 17:53 ENE 6 10 Clear CLR 84 60     44%   84 30.16 30.15      
Jun 25 16:53 ENE 8 10 Clear CLR 84 61     46%   84 30.17 30.16      
Jun 25 15:53 NNE 7 10 Clear CLR 83 61     48%   83 30.18 30.17      
Jun 25 14:53 6 10 Clear CLR 84 63     49%   85 30.2 30.19      
Jun 25 13:53 6 10 Clear CLR 83 64     53%   84 30.22 30.21      
Jun 25 12:53 ENE 8 10 Partly Cloudy SCT040 81 65     58%   83 30.24 30.23      
Jun 25 11:53 E 9 10 Partly Cloudy SCT100 80 65     60%   82 30.25 30.24      
Jun 25 10:53 E 6 10 Partly Cloudy SCT100 77 65     66%   78 30.26 30.24      
Jun 25 09:53 E 6 10 Cloudy OVC100 73 65     76%   74 30.25 30.24      
Jun 25 08:53 ENE 3 10 Cloudy OVC100 73 66     79%   74 30.24 30.23      
Jun 25 07:53 ENE 6 10 Cloudy BKN095 OVC110 71 67     87%   72 30.22 30.21      
Jun 25 06:53 NNE 3 10 Cloudy OVC095 69 66     90%     30.21 30.2      
Jun 25 05:53 NE 6 10 Mostly Cloudy BKN100 69 65     87%     30.19 30.18      
Jun 25 04:53 Calm 10 Cloudy OVC100 69 67     93%     30.19 30.17      
Jun 25 03:53 Calm 10 Cloudy OVC090 70 66     87%     30.18 30.17      
Jun 25 02:53 Calm 10 Cloudy OVC090 70 67     90%     30.17 30.16      
Jun 25 01:53 Calm 10 Cloudy OVC090 71 67     87%   72 30.18 30.17      
Jun 25 00:53 Calm 10 Mostly Cloudy BKN095 70 67     90%     30.17 30.16      
Jun 24 23:53 NNE 6 10 Mostly Clear FEW100 72 67     84%   73 30.16 30.15      
Jun 24 22:53 NNE 6 10 Partly Cloudy SCT090 73 67     81%   74 30.15 30.14      
Jun 24 21:53 NNE 5 10 Clear CLR 73 68     84%   74 30.14 30.13      
Jun 24 20:53 N 5 10 Mostly Cloudy BKN100 BKN120 74 68     82%   75 30.12 30.11      
Jun 24 19:53 NNE 6 10 Partly Cloudy SCT110 75 68     79%   76 30.11 30.1      
Jun 24 18:53 NNE 7 10 Clear CLR 78 67     69%   79 30.11 30.09      
Jun 24 17:53 NE 8 10 Mostly Clear FEW080 80 69     69%   83 30.09 30.08      
Jun 24 16:53 NNE 8 10 Mostly Clear FEW028 FEW085 81 69     67%   84 30.09 30.08      
Jun 24 15:53 NE 8 10 Partly Cloudy FEW050 SCT080 81 67     62%   83 30.08 30.07      
Jun 24 14:53 5 10 Partly Cloudy FEW050 SCT080 80 68     67%   83 30.1 30.09      
Jun 24 13:53 NE 8 10 Clear CLR 81 67     62%   83 30.11 30.09      
Jun 08 23:53 Calm 10 Clear CLR 63 59     87%     29.95 29.93      
Jun 06 05:53 N 6 10 Cloudy OVC004 71 70     96%   72 29.78 29.76      
Jun 06 01:25 N 3 10 Cloudy SCT006 BKN011 OVC030 71 69     93%   72 29.78